Showing default

OPS 1920, 2481

Orbit data source: Space-Track

OPS 1920, 2481 is a payload satellite owned by USAF SSD (US) in LEO that was launched on Wed, 05 Oct 1966 UTC via an ATLAS SLV-3 AGENA D launch vehicle from the Air Force Western Test Range (AFWTR). Payload-class satellites include a variety of spacecraft equipped with specific instruments for various scientific and technological missions. These include communications satellites like Starlink; space stations such as the ISS; scientific satellites like the Hubble; Earth observation satellites from companies like Planet Labs, Umbra, and HawkEye 360; GPS; miniature CubeSats for education and research; and military/defense satellites.

Loading next visibility...
Identifier
2481, 1966-089A
Orbit
LEO
Country
Flag of USUS
Related business
Manufacturer
LMSC
Mission
Spacecraft
Bus & Motor
MIDAS, Unknown motor
Mass
~2,000 kg wet, ~1,000 kg dry
Launch date (UTC)
1966-10-05 (59 years ago)
Launch vehicle
ATLAS SLV-3 AGENA D
Launch site
Air Force Western Test Range (AFWTR)
Object type
Payload
Rocket body
Debris
Shape & HBR
Unknown
Radar Cross Section
Large (>1 m²)

Expand to show TLE details & history
Last TLE update: 9 hours ago

TLE from 9 hours ago
0 OPS 1920
1 02481U 66089A   25352.56739308  .00000004  00000-0  98197-3 0  9993
2 02481  89.8355  32.4062 0033012 140.9494 219.3748  8.59254976857157
Epoch: 2025-12-18T13:37Z
TLE epoch observation values (Epoch: 2025-12-18T13:37:02.762Z)
Latitude
-0.00004°
Longitude
100.72365°
Altitude
3,718.809 km
Speed
6.276 km/s
True Right ascension
02h 09m 37s
True Declination
0° 00' 00"
Sunlit
Object was in daylight at epoch
Visualization orbit readout
Latitude
Unknown
Longitude
Unknown
Altitude
Unknown
Speed
Unknown
Apparent Right ascension
Unknown
Apparent Declination
Unknown
Sunlit
N/A
Visualization observer readout
Local Sidereal Time
21:08:50
Azimuth
Unknown
Elevation
Unknown
Doppler factor
Unknown
Orbital elements
Apogee altitude
3,721.934 km
Perigee altitude
3,655.468 km
Semi-major axis
10,066.838 km
Eccentricity
0.0033
Inclination
89.8355°
RAAN
32.4062°
Arg. of periapsis
140.9494°
True anomaly
219.13558°
Mean anomaly
219.3748°
Eccentric anomaly
219.25511°
Mean motion
2.14884 °/min
Orbital period
167.53 mins
BSTAR
0.00098197
Loading maneuver chart data...
Computing Atmospheric mass density...
Loading historical data...
Loading historical data...
Loading historical data...
Loading historical data...
Loading historical data...
Loading historical data...
Loading historical data...
Other satellites on launch #89 in the year 1966 (1966-10-05 UTC)

Documentation

Showing up to 5 results
|